Jackson, MN

11:42 AM CST on February 21, 2017 (GMT -0600)
Jackson Municipal

Weather History for KMJQ - April, 2014

Change the Weather History Date:

Friday, April 25, 2014

  Actual Average Record
Temperature  
Mean Temperature 54 °F -  
Max Temperature 69 °F 59 °F 84 °F (2012)
Min Temperature 39 °F 37 °F 28 °F (2013)
Degree Days  
Heating Degree Days 11    
Growing Degree Days 4 (Base 50)    
Moisture  
Dew Point 34 °F    
Average Humidity 52    
Maximum Humidity 87    
Minimum Humidity 21    
Precipitation  
Precipitation 0.00 in - - ()
Sea Level Pressure  
Sea Level Pressure 29.80 in    
Wind  
Wind Speed 7 mph (WNW)    
Max Wind Speed 14 mph    
Max Gust Speed 22 mph    
Visibility 10 miles    
Events      
Averages and records for this station are not official NWS values.
T = Trace of Precipitation, MM = Missing Value Source: NWS Daily Summary

Daily Weather History Graph

Daily Weather History Graph

Search for Another Location

Airport or City:

Trip Planner

Search our weather history database for the weather conditions in past years. The results will help you decide how hot, cold, wet, or windy it might be!

Date:

Astronomy

Apr. 25, 2014 Rise Set
Actual Time 6:21 AM CDT 8:15 PM CDT
Civil Twilight 5:50 AM CDT 8:46 PM CDT
Nautical Twilight 5:12 AM CDT 9:24 PM CDT
Astronomical Twilight 4:31 AM CDT 10:05 PM CDT
Moon 4:17 AM CDT (4/25) 4:31 PM CDT (4/25)
Length of Visible Light 14h 55m
Length of Day
13h 54m
Waning Crescent, 15% of the Moon is Illuminated
Apr 25
Waning Crescent
Apr 29
New
May 6
First Quarter
May 14
Full
May 21
Last Quarter

Hourly Weather History & Observations

Time (CDT) Temp. Windchill Dew Point Humidity Pressure Visibility Wind Dir Wind Speed Gust Speed Precip Events Conditions
12:12 AM 41.0 °F 37.1 °F 35.6 °F 81% 29.76 in 10.0 mi SSW 5.8 mph - N/A   Clear
12:32 AM 41.0 °F 38.0 °F 37.4 °F 87% 29.76 in 10.0 mi SSW 4.6 mph - N/A   Clear
12:52 AM 41.0 °F 38.0 °F 37.4 °F 87% 29.76 in 10.0 mi SSW 4.6 mph - N/A   Clear
1:12 AM 41.0 °F 35.8 °F 37.4 °F 87% 29.76 in 10.0 mi SW 8.1 mph - N/A   Clear
1:32 AM 41.0 °F 35.8 °F 35.6 °F 81% 29.76 in 10.0 mi SSW 8.1 mph - N/A   Clear
1:52 AM 39.2 °F 34.2 °F 35.6 °F 87% 29.76 in 10.0 mi SSW 6.9 mph - N/A   Clear
2:12 AM 39.2 °F 34.2 °F 35.6 °F 87% 29.76 in 10.0 mi SSW 6.9 mph - N/A   Clear
2:32 AM 41.0 °F 35.2 °F 37.4 °F 87% 29.76 in 10.0 mi SSW 9.2 mph - N/A   Clear
2:52 AM 41.0 °F 35.2 °F 37.4 °F 87% 29.76 in 10.0 mi SSW 9.2 mph - N/A   Clear
3:12 AM 41.0 °F 35.8 °F 37.4 °F 87% 29.75 in 10.0 mi SSW 8.1 mph - N/A   Clear
3:32 AM 41.0 °F 35.8 °F 37.4 °F 87% 29.75 in 10.0 mi SW 8.1 mph - N/A   Clear
3:52 AM 42.8 °F 38.0 °F 37.4 °F 81% 29.75 in 10.0 mi SW 8.1 mph - N/A   Clear
4:12 AM 41.0 °F 36.4 °F 35.6 °F 81% 29.76 in 10.0 mi SW 6.9 mph - N/A   Clear
4:32 AM 41.0 °F 36.4 °F 35.6 °F 81% 29.75 in 10.0 mi SW 6.9 mph - N/A   Clear
4:52 AM 41.0 °F 35.8 °F 35.6 °F 81% 29.76 in 10.0 mi WSW 8.1 mph - N/A   Clear
5:12 AM 41.0 °F 37.1 °F 33.8 °F 76% 29.76 in 10.0 mi WSW 5.8 mph - N/A   Mostly Cloudy
5:32 AM 41.0 °F 35.8 °F 33.8 °F 76% 29.76 in 10.0 mi West 8.1 mph - N/A   Scattered Clouds
5:52 AM 41.0 °F 35.8 °F 33.8 °F 76% 29.78 in 10.0 mi West 8.1 mph - N/A   Scattered Clouds
6:13 AM 41.0 °F 34.7 °F 32.0 °F 70% 29.79 in 10.0 mi West 10.4 mph - N/A   Scattered Clouds
6:32 AM 42.8 °F 37.0 °F 32.0 °F 66% 29.79 in 10.0 mi West 10.4 mph - N/A   Mostly Cloudy
6:52 AM 42.8 °F 37.5 °F 32.0 °F 66% 29.79 in 10.0 mi West 9.2 mph - N/A   Mostly Cloudy
7:13 AM 42.8 °F 38.6 °F 32.0 °F 66% 29.80 in 10.0 mi West 6.9 mph - N/A   Overcast
7:32 AM 44.6 °F 40.7 °F 33.8 °F 66% 29.81 in 10.0 mi West 6.9 mph - N/A   Overcast
7:52 AM 46.4 °F 43.5 °F 35.6 °F 66% 29.80 in 10.0 mi West 5.8 mph - N/A   Overcast
8:13 AM 46.4 °F 43.5 °F 35.6 °F 66% 29.81 in 10.0 mi West 5.8 mph - N/A   Overcast
8:32 AM 48.2 °F - 37.4 °F 66% 29.82 in 10.0 mi West 4.6 mph - N/A   Overcast
8:52 AM 50.0 °F - 37.4 °F 62% 29.82 in 10.0 mi WNW 4.6 mph - N/A   Mostly Cloudy
9:13 AM 51.8 °F - 39.2 °F 62% 29.83 in 10.0 mi NW 5.8 mph - N/A   Mostly Cloudy
9:32 AM 51.8 °F - 37.4 °F 58% 29.83 in 10.0 mi NW 5.8 mph - N/A   Overcast
9:52 AM 53.6 °F - 35.6 °F 51% 29.83 in 10.0 mi NW 3.5 mph - N/A   Overcast
10:12 AM 55.4 °F - 35.6 °F 47% 29.83 in 10.0 mi WNW 4.6 mph - N/A   Overcast
10:32 AM 55.4 °F - 33.8 °F 44% 29.83 in 10.0 mi Calm Calm - N/A   Mostly Cloudy
10:52 AM 59.0 °F - 32.0 °F 36% 29.83 in 10.0 mi NNW 3.5 mph - N/A   Mostly Cloudy
11:12 AM 60.8 °F - 30.2 °F 31% 29.84 in 10.0 mi NW 4.6 mph - N/A   Scattered Clouds
11:32 AM 62.6 °F - 26.6 °F 26% 29.84 in 10.0 mi NW 9.2 mph - N/A   Mostly Cloudy
11:52 AM 62.6 °F - 30.2 °F 30% 29.84 in 10.0 mi WNW 10.4 mph - N/A   Overcast
12:12 PM 60.8 °F - 30.2 °F 31% 29.84 in 10.0 mi NW 3.5 mph - N/A   Overcast
12:32 PM 62.6 °F - 32.0 °F 32% 29.84 in 10.0 mi West 9.2 mph - N/A   Scattered Clouds
12:52 PM 64.4 °F - 32.0 °F 30% 29.84 in 10.0 mi WSW 10.4 mph - N/A   Clear
1:12 PM 64.4 °F - 32.0 °F 30% 29.83 in 10.0 mi West 6.9 mph - N/A   Scattered Clouds
1:32 PM 64.4 °F - 32.0 °F 30% 29.83 in 10.0 mi WNW 12.7 mph 16.1 mph N/A   Scattered Clouds
1:52 PM 66.2 °F - 32.0 °F 28% 29.82 in 10.0 mi WNW 8.1 mph - N/A   Clear
2:12 PM 64.4 °F - 30.2 °F 28% 29.82 in 10.0 mi West 4.6 mph - N/A   Clear
2:32 PM 66.2 °F - 30.2 °F 26% 29.82 in 10.0 mi Calm Calm - N/A   Clear
2:52 PM 68.0 °F - 30.2 °F 24% 29.81 in 10.0 mi West 6.9 mph - N/A   Clear
3:12 PM 68.0 °F - 30.2 °F 24% 29.80 in 10.0 mi North 6.9 mph 18.4 mph N/A   Scattered Clouds
3:32 PM 69.8 °F - 30.2 °F 23% 29.80 in 10.0 mi WNW 6.9 mph 18.4 mph N/A   Scattered Clouds
3:52 PM 68.0 °F - 30.2 °F 24% 29.80 in 10.0 mi North 4.6 mph - N/A   Clear
4:12 PM 69.8 °F - 30.2 °F 23% 29.80 in 10.0 mi NW 11.5 mph 21.9 mph N/A   Clear
4:32 PM 68.0 °F - 28.4 °F 23% 29.80 in 10.0 mi WNW 10.4 mph 17.3 mph N/A   Clear
4:52 PM 68.0 °F - 30.2 °F 24% 29.80 in 10.0 mi West 13.8 mph - N/A   Clear
5:12 PM 69.8 °F - 28.4 °F 21% 29.80 in 10.0 mi WNW 6.9 mph - N/A   Clear
5:32 PM 69.8 °F - 30.2 °F 23% 29.79 in 10.0 mi NW 10.4 mph - N/A   Clear
5:52 PM 69.8 °F - 30.2 °F 23% 29.79 in 10.0 mi NNW 10.4 mph - N/A   Clear
6:12 PM 69.8 °F - 30.2 °F 23% 29.79 in 10.0 mi NNW 5.8 mph - N/A   Clear
6:32 PM 68.0 °F - 28.4 °F 23% 29.79 in 10.0 mi NNW 5.8 mph - N/A   Clear
6:52 PM 68.0 °F - 28.4 °F 23% 29.79 in 10.0 mi Calm Calm - N/A   Clear
7:12 PM 68.0 °F - 30.2 °F 24% 29.79 in 10.0 mi North 5.8 mph - N/A   Clear
7:32 PM 64.4 °F - 33.8 °F 32% 29.80 in 10.0 mi NE 5.8 mph - N/A   Clear
7:52 PM 62.6 °F - 37.4 °F 39% 29.80 in 10.0 mi NE 5.8 mph - N/A   Clear
8:12 PM 59.0 °F - 37.4 °F 45% 29.81 in 10.0 mi ENE 8.1 mph - N/A   Clear
8:32 PM 59.0 °F - 35.6 °F 42% 29.81 in 10.0 mi ENE 10.4 mph - N/A   Clear
8:52 PM 57.2 °F - 35.6 °F 44% 29.82 in 10.0 mi ESE 6.9 mph - N/A   Clear
9:12 PM 55.4 °F - 35.6 °F 47% 29.83 in 10.0 mi ENE 6.9 mph - N/A   Clear
9:32 PM 51.8 °F - 37.4 °F 58% 29.84 in 10.0 mi East 8.1 mph - N/A   Clear
9:52 PM 55.4 °F - 33.8 °F 44% 29.85 in 10.0 mi East 6.9 mph - N/A   Clear
10:12 PM 53.6 °F - 35.6 °F 51% 29.85 in 10.0 mi ENE 8.1 mph - N/A   Clear
10:32 PM 51.8 °F - 35.6 °F 54% 29.86 in 10.0 mi ENE 8.1 mph - N/A   Clear
10:52 PM 50.0 °F - 35.6 °F 58% 29.86 in 10.0 mi ENE 10.4 mph - N/A   Clear
11:12 PM 50.0 °F - 35.6 °F 58% 29.87 in 10.0 mi ENE 10.4 mph - N/A   Clear
11:32 PM 46.4 °F 41.5 °F 35.6 °F 66% 29.87 in 10.0 mi NE 10.4 mph - N/A   Clear
11:52 PM 46.4 °F 42.4 °F 37.4 °F 71% 29.87 in 10.0 mi NE 8.1 mph - N/A   Clear